User: anonymous   Login
Location: Ebersheim
(48.3033°N, 7.4991°E)
Time: 07:32:44
(UTC+00:00)
Language:

SKYMED 2 - Orbit

View from above orbital plane
View from above orbital plane
View from above satellite
View from above satellite

Ground track
Ground track

The orbit data is extracted from the following two-line orbital elements,

1 32376U 07059A   20156.88718778 +.00000389 +00000-0 +55355-4 0  9997
2 32376 097.8852 340.2461 0001470 087.8254 272.3138 14.82157788675711
Epoch (UTC): 04 June 2020 21:17:33
Eccentricity: 0.0001470
inclination: 97.8852°
perigee height: 621 km
apogee height: 623 km
right ascension of ascending node: 340.2461°
argument of perigee: 87.8254°
revolutions per day: 14.82157788
mean anomaly at epoch: 272.3138°
orbit number at epoch: 67571

The dashed part of the orbit path shows where the satellite is in the earth's shadow,  

DLR